This is the latest recevied weather packets stored in our database for station/object K6QM-1. If no packets are shown the sender has not sent any weather packets the latest 10 day(s).
| Time | Temp. | Humidity | Pressure | Rain* | Wind** | Luminosity | Snow |
|---|---|---|---|---|---|---|---|
| 1777413301 | 23.33° C | 43% | 1018.4 hPa | - | - | - | - |
| 1777412401 | 22.78° C | 43% | 1018.5 hPa | - | - | - | - |
| 1777411502 | 22.78° C | 42% | 1018.8 hPa | - | - | - | - |
| 1777410601 | 22.22° C | 42% | 1018.9 hPa | - | - | - | - |
| 1777409701 | 22.78° C | 42% | 1018.8 hPa | - | - | - | - |
| 1777408801 | 22.78° C | 41% | 1019 hPa | - | - | - | - |
| 1777407902 | 22.78° C | 41% | 1018.8 hPa | - | - | - | - |
| 1777407001 | 22.22° C | 41% | 1019.5 hPa | - | - | - | - |
| 1777406101 | 22.22° C | 40% | 1018.8 hPa | - | - | - | - |
| 1777405201 | 22.22° C | 39% | 1019.2 hPa | - | - | - | - |
| 1777404301 | 22.22° C | 39% | 1019.1 hPa | - | - | - | - |
| 1777403401 | 22.78° C | 40% | 1019.2 hPa | - | - | - | - |
| 1777402501 | 22.22° C | 40% | 1019.2 hPa | - | - | - | - |
| 1777401600 | 21.67° C | 42% | 1019.3 hPa | - | - | - | - |
| 1777400700 | 21.67° C | 42% | 1019.4 hPa | - | - | - | - |
| 1777399800 | 21.11° C | 44% | 1019.5 hPa | - | - | - | - |
| 1777398900 | 21.11° C | 44% | 1019.6 hPa | - | - | - | - |
| 1777398000 | 20.56° C | 44% | 1019.6 hPa | - | - | - | - |
| 1777397100 | 20.56° C | 43% | 1019.7 hPa | - | - | - | - |
| 1777396200 | 21.67° C | 42% | 1019.6 hPa | - | - | - | - |
| 1777395300 | 20° C | 42% | 1019.4 hPa | - | - | - | - |
| 1777394400 | 18.89° C | 44% | 1019.6 hPa | - | - | - | - |
| 1777393500 | 17.78° C | 47% | 1019.6 hPa | - | - | - | - |
| 1777392600 | 17.22° C | 49% | 1019.7 hPa | - | - | - | - |
| 1777391700 | 16.11° C | 52% | 1019.6 hPa | - | - | - | - |
* Rain since midnight (hover to see other rain measurements)
** Current wind speed in m/s (hover to see current wind gust speed)